DINDI LSZR-EDMA

Flight info

Callsign DINDI
Flight time 0h 31m
Altitude 3000
Route DCT
Aircraft P212/L-SDLY/S

Departure

Time 2026-04-27 09:56
Airport Sankt Gallen Altenrhein Airport (LSZR)

Arrival

Time 2026-04-27 10:27
Airport Augsburg Airport (EDMA)
Time Latitude Longitude Altitude Speed Heading
2026-04-27 09:47 47.48719 9.55298 1309 ft 0 kts
2026-04-27 09:52 47.48713 9.55342 1309 ft 12 kts 157°
2026-04-27 09:52 47.48586 9.55341 1311 ft 22 kts 142°
2026-04-27 09:53 47.48552 9.55585 1311 ft 32 kts 100°
2026-04-27 09:53 47.48508 9.55985 1311 ft 46 kts 99°
2026-04-27 09:53 47.48458 9.56481 1308 ft 50 kts 99°
2026-04-27 09:53 47.48411 9.56857 1308 ft 14 kts 103°
2026-04-27 09:54 47.48419 9.56876 1308 ft 0 kts 278°
2026-04-27 09:54 47.48423 9.56841 1308 ft 18 kts 278°
2026-04-27 09:54 47.48470 9.56388 1308 ft 72 kts 279°
2026-04-27 09:55 47.48571 9.55486 1423 ft 98 kts 280°
2026-04-27 09:55 47.48701 9.54406 1570 ft 115 kts 280°
2026-04-27 09:55 47.50094 9.53061 1836 ft 149 kts
2026-04-27 09:56 47.51034 9.53711 1997 ft 158 kts 47°
2026-04-27 09:56 47.51380 9.55248 2160 ft 164 kts 91°
2026-04-27 09:56 47.51012 9.56845 2339 ft 167 kts 114°
2026-04-27 09:56 47.50572 9.58434 2503 ft 166 kts 108°
2026-04-27 09:57 47.50353 9.60100 2667 ft 165 kts 90°
2026-04-27 09:57 47.50597 9.61720 2825 ft 162 kts 64°
2026-04-27 09:57 47.51062 9.63236 2979 ft 162 kts 65°
2026-04-27 09:57 47.51617 9.64722 2999 ft 168 kts 59°
2026-04-27 09:58 47.52172 9.66281 3014 ft 174 kts 63°
2026-04-27 09:58 47.52683 9.67919 3010 ft 176 kts 64°
2026-04-27 09:58 47.53258 9.69521 3008 ft 176 kts 59°
2026-04-27 09:58 47.53896 9.71074 3011 ft 176 kts 56°
2026-04-27 09:59 47.54581 9.72578 3008 ft 176 kts 54°
2026-04-27 09:59 47.55282 9.74101 3003 ft 182 kts 54°
2026-04-27 09:59 47.56139 9.75461 3003 ft 182 kts 34°
2026-04-27 09:59 47.57236 9.76421 3003 ft 184 kts 29°
2026-04-27 10:00 47.58343 9.77343 2997 ft 185 kts 29°
2026-04-27 10:00 47.59466 9.78274 2993 ft 186 kts 28°
2026-04-27 10:00 47.60586 9.79206 2988 ft 182 kts 29°
2026-04-27 10:00 47.61667 9.80112 3125 ft 174 kts 27°
2026-04-27 10:01 47.62809 9.80435 3257 ft 167 kts 354°
2026-04-27 10:01 47.63936 9.80077 3419 ft 166 kts 346°
2026-04-27 10:01 47.65067 9.79660 3560 ft 167 kts 347°
2026-04-27 10:01 47.66207 9.79235 3703 ft 170 kts 346°
2026-04-27 10:02 47.67381 9.79131 3875 ft 173 kts 12°
2026-04-27 10:02 47.68528 9.79726 3995 ft 176 kts 25°
2026-04-27 10:02 47.69612 9.80615 3995 ft 179 kts 34°
2026-04-27 10:02 47.70555 9.81824 3996 ft 179 kts 45°
2026-04-27 10:03 47.71420 9.83155 3995 ft 179 kts 46°
2026-04-27 10:03 47.72194 9.84594 3999 ft 179 kts 55°
2026-04-27 10:03 47.72877 9.86109 4001 ft 179 kts 56°
2026-04-27 10:03 47.73584 9.87670 4006 ft 181 kts 55°
2026-04-27 10:04 47.74288 9.89226 4006 ft 182 kts 56°
2026-04-27 10:04 47.74724 9.90204 3990 ft 186 kts 56°
2026-04-27 10:04 47.75485 9.91763 3986 ft 187 kts 44°
2026-04-27 10:04 47.76657 9.92571 3990 ft 186 kts
2026-04-27 10:05 47.77908 9.92758 3983 ft 180 kts
2026-04-27 10:05 47.79144 9.92900 3986 ft 176 kts
2026-04-27 10:05 47.80354 9.93041 3983 ft 175 kts
2026-04-27 10:05 47.81558 9.93178 3985 ft 173 kts
2026-04-27 10:06 47.82749 9.93303 3998 ft 171 kts
2026-04-27 10:06 47.83952 9.93424 4002 ft 175 kts
2026-04-27 10:06 47.85172 9.93563 4000 ft 175 kts
2026-04-27 10:06 47.86393 9.93702 3992 ft 174 kts
2026-04-27 10:07 47.87602 9.93861 3989 ft 174 kts
2026-04-27 10:07 47.88796 9.94036 3988 ft 171 kts
2026-04-27 10:07 47.89979 9.94157 3997 ft 170 kts
2026-04-27 10:07 47.91162 9.94284 3986 ft 170 kts
2026-04-27 10:08 47.92343 9.94427 3986 ft 169 kts 11°
2026-04-27 10:08 47.93348 9.95244 3993 ft 166 kts 40°
2026-04-27 10:08 47.94219 9.96387 4016 ft 169 kts 41°
2026-04-27 10:08 47.95136 9.97592 4003 ft 181 kts 41°
2026-04-27 10:09 47.96068 9.98828 4005 ft 177 kts 42°
2026-04-27 10:09 47.96989 10.00048 4007 ft 177 kts 40°
2026-04-27 10:09 47.97972 10.01176 4006 ft 183 kts 35°
2026-04-27 10:09 47.99006 10.02221 3987 ft 178 kts 34°
2026-04-27 10:10 48.00025 10.03259 3988 ft 172 kts 38°
2026-04-27 10:10 48.00925 10.04381 3989 ft 171 kts 41°
2026-04-27 10:10 48.01820 10.05531 3988 ft 169 kts 40°
2026-04-27 10:10 48.02731 10.06695 3992 ft 171 kts 41°
2026-04-27 10:11 48.03623 10.07853 3992 ft 173 kts 41°
2026-04-27 10:11 48.04542 10.09038 4006 ft 178 kts 41°
2026-04-27 10:11 48.05487 10.10250 4003 ft 180 kts 41°
2026-04-27 10:11 48.06434 10.11459 4000 ft 177 kts 40°
2026-04-27 10:12 48.07365 10.12641 3996 ft 174 kts 40°
2026-04-27 10:12 48.08296 10.13842 3998 ft 180 kts 41°
2026-04-27 10:12 48.09229 10.15056 3990 ft 175 kts 41°
2026-04-27 10:12 48.10148 10.16252 4001 ft 177 kts 41°
2026-04-27 10:13 48.11065 10.17452 3991 ft 173 kts 41°
2026-04-27 10:13 48.11966 10.18617 3996 ft 171 kts 41°
2026-04-27 10:13 48.12869 10.19778 3993 ft 170 kts 41°
2026-04-27 10:13 48.13766 10.20947 4003 ft 173 kts 41°
2026-04-27 10:14 48.14677 10.22122 3994 ft 172 kts 41°
2026-04-27 10:14 48.15577 10.23283 4001 ft 170 kts 41°
2026-04-27 10:14 48.16478 10.24451 3997 ft 173 kts 41°
2026-04-27 10:14 48.17377 10.25610 4010 ft 174 kts 41°
2026-04-27 10:15 48.18313 10.26823 4008 ft 178 kts 41°
2026-04-27 10:15 48.19241 10.28029 4000 ft 178 kts 41°
2026-04-27 10:15 48.20193 10.29259 4006 ft 179 kts 40°
2026-04-27 10:15 48.21134 10.30484 4008 ft 180 kts 41°
2026-04-27 10:16 48.22067 10.31691 4004 ft 180 kts 41°
2026-04-27 10:16 48.22997 10.32910 3996 ft 175 kts 41°
2026-04-27 10:16 48.23926 10.34118 3997 ft 177 kts 41°
2026-04-27 10:16 48.24843 10.35307 3993 ft 172 kts 41°
2026-04-27 10:17 48.25751 10.36491 4009 ft 175 kts 41°
2026-04-27 10:17 48.26669 10.37688 3996 ft 173 kts 41°
2026-04-27 10:17 48.27573 10.38866 3997 ft 171 kts 41°
2026-04-27 10:17 48.28468 10.40034 4009 ft 171 kts 40°
2026-04-27 10:18 48.29373 10.41214 4005 ft 172 kts 41°
2026-04-27 10:18 48.30270 10.42387 4005 ft 170 kts 41°
2026-04-27 10:18 48.31164 10.43552 4017 ft 171 kts 40°
2026-04-27 10:18 48.32092 10.44691 4007 ft 172 kts 36°
2026-04-27 10:19 48.33142 10.45562 4013 ft 174 kts 21°
2026-04-27 10:19 48.34286 10.46183 4026 ft 176 kts 19°
2026-04-27 10:19 48.35448 10.46775 4024 ft 177 kts 19°
2026-04-27 10:19 48.36612 10.47442 3928 ft 182 kts 29°
2026-04-27 10:20 48.37573 10.48688 3798 ft 183 kts 53°
2026-04-27 10:20 48.38184 10.50351 3695 ft 183 kts 64°
2026-04-27 10:20 48.38729 10.52084 3569 ft 184 kts 65°
2026-04-27 10:20 48.39247 10.53816 3440 ft 179 kts 66°
2026-04-27 10:21 48.39713 10.55539 3308 ft 177 kts 69°
2026-04-27 10:21 48.40071 10.57309 3186 ft 177 kts 76°
2026-04-27 10:21 48.40343 10.59139 3054 ft 177 kts 77°
2026-04-27 10:21 48.40597 10.60908 3029 ft 174 kts 77°
2026-04-27 10:22 48.40851 10.62661 3017 ft 169 kts 77°
2026-04-27 10:22 48.41096 10.64376 3036 ft 170 kts 76°
2026-04-27 10:22 48.41350 10.66148 3032 ft 173 kts 77°
2026-04-27 10:22 48.41585 10.67854 2994 ft 162 kts 80°
2026-04-27 10:23 48.41644 10.69543 2893 ft 162 kts 91°
2026-04-27 10:23 48.41541 10.71222 2852 ft 160 kts 95°
2026-04-27 10:23 48.41450 10.72879 2861 ft 159 kts 92°
2026-04-27 10:23 48.41395 10.74524 2853 ft 157 kts 90°
2026-04-27 10:24 48.41406 10.76181 2795 ft 159 kts 85°
2026-04-27 10:24 48.41507 10.77824 2801 ft 157 kts 84°
2026-04-27 10:24 48.41577 10.79462 2780 ft 158 kts 87°
2026-04-27 10:24 48.41571 10.81122 2755 ft 158 kts 91°
2026-04-27 10:25 48.41493 10.82727 2763 ft 141 kts 96°
2026-04-27 10:25 48.41354 10.84081 2732 ft 122 kts 98°
2026-04-27 10:25 48.41242 10.85239 2595 ft 108 kts 94°
2026-04-27 10:25 48.41202 10.86319 2371 ft 102 kts 89°
2026-04-27 10:26 48.41236 10.87409 2240 ft 105 kts 79°
2026-04-27 10:26 48.41422 10.88455 2127 ft 103 kts 69°
2026-04-27 10:26 48.41683 10.89475 1992 ft 103 kts 68°
2026-04-27 10:26 48.41918 10.90480 1822 ft 99 kts 69°
2026-04-27 10:27 48.42136 10.91452 1653 ft 98 kts 68°
2026-04-27 10:27 48.42353 10.92419 1522 ft 95 kts 69°
2026-04-27 10:27 48.42526 10.93189 1515 ft 44 kts 73°
2026-04-27 10:27 48.42599 10.93532 1516 ft 17 kts 74°
2026-04-27 10:28 48.42568 10.93621 1516 ft 12 kts 192°
2026-04-27 10:28 48.42520 10.93508 1515 ft 16 kts 251°
2026-04-27 10:28 48.42486 10.93324 1515 ft 20 kts 255°
2026-04-27 10:28 48.42453 10.93170 1515 ft 9 kts 250°
2026-04-27 10:29 48.42429 10.93075 1515 ft 10 kts 249°
2026-04-27 10:29 48.42404 10.92968 1515 ft 12 kts 251°
2026-04-27 10:29 48.42374 10.92915 1515 ft 3 kts 169°
2026-04-27 10:29 48.42355 10.92920 1515 ft 2 kts 218°
2026-04-27 10:30 48.42350 10.92906 1515 ft 3 kts 254°
2026-04-27 10:30 48.42349 10.92904 1515 ft 0 kts 253°